QPF
0.00 0.00 0.00 0.00 0.00 0.00 0.00 0.00 0.00 0.00 0.00 0.00 0.00 0.00 0.00 0.00 0.00 0.00 0.00 0.00 0.00 0.00 0.00 0.00 0.00 0.00 0.00 0.00 0.00 0.00 0.00 0.00 0.00 0.01 0.01 0.02 0.02 0.01 0.00 0.00 0.00 0.00 0.00 0.00
0.00 0.00 0.00 0.00 0.00 0.00 0.00 0.00 0.00 0.00 0.00 0.00 0.00 0.00 0.00 0.00 0.00 0.00 0.00 0.00 0.00 0.00 0.00 0.00 0.00 0.00 0.00 0.00 0.00 0.00 0.00 0.00 0.00 0.01 0.02 0.03 0.03 0.01 0.00 0.00 0.00 0.00 0.00 0.00
0.00 0.00 0.00 0.00 0.00 0.00 0.00 0.00 0.00 0.00 0.00 0.00 0.00 0.00 0.00 0.00 0.00 0.00 0.00 0.00 0.00 0.00 0.00 0.00 0.00 0.00 0.00 0.00 0.00 0.00 0.00 0.00 0.00 0.00 0.02 0.02 0.02 0.01 0.00 0.00 0.00 0.00 0.00 0.00
0.01 0.00 0.00 0.00 0.00 0.00 0.00 0.00 0.00 0.00 0.00 0.00 0.00 0.00 0.00 0.00 0.00 0.00 0.00 0.00 0.00 0.00 0.00 0.00 0.00 0.00 0.00 0.00 0.00 0.00 0.00 0.00 0.00 0.00 0.01 0.01 0.01 0.01 0.00 0.00 0.00 0.00 0.00 0.00
0.01 0.00 0.00 0.00 0.00 0.00 0.00 0.00 0.00 0.00 0.01 0.01 0.00 0.00 0.00 0.00 0.00 0.00 0.00 0.00 0.00 0.00 0.00 0.00 0.00 0.00 0.00 0.00 0.00 0.00 0.00 0.00 0.00 0.00 0.00 0.01 0.01 0.00 0.00 0.00 0.00 0.00 0.00 0.00
0.01 0.00 0.00 0.00 0.00 0.00 0.01 0.02 0.02 0.02 0.04 0.03 0.00 0.00 0.00 0.00 0.00 0.00 0.00 0.00 0.00 0.00 0.00 0.00 0.00 0.00 0.00 0.00 0.00 0.00 0.00 0.00 0.00 0.00 0.00 0.00 0.00 0.00 0.00 0.00 0.00 0.00 0.00 0.00
0.03 0.01 0.01 0.00 0.00 0.00 0.02 0.07 0.11 0.07 0.05 0.02 0.00 0.00 0.00 0.00 0.00 0.00 0.00 0.00 0.00 0.00 0.00 0.00 0.00 0.00 0.00 0.00 0.00 0.00 0.00 0.00 0.00 0.00 0.00 0.00 0.00 0.00 0.00 0.00 0.00 0.00 0.00 0.00
0.04 0.01 0.00 0.00 0.00 0.00 0.01 0.05 0.08 0.05 0.02 0.00 0.00 0.00 0.00 0.00 0.00 0.00 0.00 0.00 0.00 0.00 0.00 0.00 0.00 0.00 0.00 0.00 0.00 0.00 0.00 0.00 0.00 0.00 0.00 0.00 0.00 0.00 0.00 0.00 0.00 0.00 0.00 0.00
0.04 0.01 0.00 0.00 0.00 0.01 0.03 0.05 0.04 0.10 0.08 0.04 0.01 0.00 0.00 0.00 0.00 0.00 0.00 0.00 0.00 0.00 0.00 0.00 0.00 0.00 0.00 0.00 0.00 0.00 0.00 0.00 0.00 0.00 0.00 0.00 0.00 0.00 0.00 0.00 0.00 0.00 0.00 0.00
0.01 0.02 0.00 0.00 0.02 0.03 0.03 0.04 0.09 0.19 0.13 0.05 0.01 0.00 0.00 0.00 0.00 0.00 0.00 0.00 0.00 0.00 0.00 0.00 0.00 0.00 0.00 0.00 0.00 0.00 0.00 0.00 0.00 0.00 0.00 0.00 0.00 0.00 0.00 0.00 0.00 0.00 0.00 0.00
0.01 0.03 0.02 0.02 0.03 0.04 0.05 0.07 0.10 0.10 0.06 0.06 0.05 0.02 0.01 0.01 0.01 0.01 0.00 0.00 0.00 0.00 0.00 0.00 0.00 0.00 0.00 0.00 0.00 0.00 0.00 0.00 0.00 0.00 0.00 0.00 0.00 0.00 0.00 0.00 0.00 0.00 0.00 0.00
0.02 0.06 0.04 0.01 0.01 0.03 0.06 0.05 0.06 0.09 0.05 0.05 0.06 0.03 0.01 0.01 0.01 0.01 0.02 0.02 0.01 0.00 0.00 0.00 0.00 0.00 0.00 0.00 0.00 0.00 0.00 0.00 0.00 0.00 0.00 0.00 0.00 0.00 0.00 0.00 0.00 0.00 0.00 0.00
0.03 0.09 0.09 0.07 0.10 0.12 0.11 0.06 0.04 0.06 0.09 0.09 0.09 0.04 0.01 0.01 0.01 0.02 0.02 0.03 0.02 0.01 0.01 0.00 0.00 0.00 0.00 0.00 0.00 0.00 0.00 0.00 0.00 0.00 0.00 0.00 0.00 0.00 0.00 0.00 0.00 0.00 0.00 0.00
0.09 0.12 0.11 0.11 0.15 0.22 0.16 0.07 0.05 0.10 0.14 0.09 0.08 0.05 0.03 0.02 0.02 0.02 0.02 0.02 0.02 0.02 0.01 0.00 0.00 0.00 0.00 0.00 0.00 0.00 0.00 0.00 0.00 0.00 0.00 0.00 0.00 0.00 0.00 0.00 0.00 0.00 0.00 0.00
0.14 0.16 0.12 0.12 0.13 0.21 0.18 0.10 0.08 0.09 0.09 0.09 0.07 0.07 0.06 0.03 0.02 0.02 0.01 0.01 0.01 0.01 0.01 0.00 0.00 0.00 0.00 0.00 0.00 0.00 0.00 0.00 0.00 0.00 0.00 0.00 0.00 0.00 0.00 0.00 0.00 0.00 0.00 0.00
0.14 0.18 0.18 0.19 0.17 0.19 0.17 0.11 0.10 0.10 0.09 0.08 0.09 0.10 0.05 0.02 0.02 0.01 0.01 0.01 0.01 0.01 0.00 0.00 0.00 0.00 0.00 0.00 0.00 0.00 0.00 0.00 0.00 0.00 0.00 0.00 0.00 0.00 0.00 0.00 0.00 0.00 0.00 0.00
0.12 0.18 0.28 0.28 0.19 0.20 0.22 0.16 0.15 0.13 0.09 0.08 0.09 0.07 0.03 0.02 0.02 0.01 0.00 0.00 0.00 0.00 0.00 0.00 0.00 0.00 0.00 0.00 0.00 0.00 0.00 0.00 0.00 0.00 0.00 0.00 0.00 0.00 0.00 0.00 0.00 0.00 0.00 0.00
0.06 0.14 0.26 0.26 0.23 0.22 0.17 0.13 0.13 0.11 0.07 0.06 0.05 0.02 0.01 0.01 0.01 0.00 0.00 0.00 0.00 0.00 0.00 0.00 0.00 0.00 0.00 0.00 0.00 0.00 0.00 0.00 0.00 0.00 0.00 0.00 0.00 0.00 0.00 0.00 0.00 0.00 0.00 0.00
0.02 0.08 0.15 0.15 0.13 0.09 0.05 0.05 0.06 0.07 0.05 0.03 0.02 0.01 0.00 0.00 0.00 0.00 0.00 0.00 0.00 0.00 0.00 0.00 0.00 0.00 0.00 0.00 0.00 0.00 0.00 0.00 0.00 0.00 0.00 0.00 0.00 0.00 0.00 0.00 0.00 0.00 0.00 0.00
0.00 0.02 0.05 0.06 0.05 0.04 0.01 0.01 0.01 0.02 0.02 0.01 0.01 0.00 0.00 0.00 0.00 0.00 0.00 0.00 0.00 0.00 0.00 0.00 0.00 0.00 0.00 0.00 0.00 0.00 0.00 0.00 0.00 0.00 0.00 0.00 0.00 0.00 0.00 0.00 0.00 0.00 0.00 0.00
0.00 0.01 0.01 0.01 0.01 0.01 0.00 0.00 0.00 0.01 0.01 0.00 0.00 0.00 0.00 0.00 0.00 0.00 0.00 0.00 0.00 0.00 0.00 0.00 0.00 0.00 0.00 0.00 0.00 0.00 0.00 0.00 0.00 0.00 0.00 0.00 0.00 0.00 0.00 0.00 0.00 0.00 0.00 0.00
0.00 0.00 0.00 0.00 0.00 0.00 0.00 0.00 0.00 0.00 0.00 0.00 0.00 0.00 0.00 0.00 0.00 0.00 0.00 0.00 0.00 0.00 0.00 0.00 0.00 0.00 0.00 0.00 0.00 0.00 0.00 0.00 0.00 0.00 0.00 0.00 0.00 0.00 0.00 0.00 0.00 0.00 0.00 0.00
0.00 0.00 0.00 0.00 0.00 0.00 0.00 0.00 0.00 0.00 0.00 0.00 0.00 0.00 0.00 0.00 0.00 0.00 0.00 0.00 0.00 0.00 0.00 0.00 0.00 0.00 0.00 0.00 0.00 0.00 0.00 0.00 0.00 0.00 0.00 0.00 0.00 0.00 0.00 0.00 0.00 0.00 0.00 0.00
0.00 0.00 0.00 0.00 0.00 0.00 0.00 0.00 0.00 0.00 0.00 0.00 0.00 0.00 0.00 0.00 0.00 0.00 0.00 0.00 0.00 0.00 0.00 0.00 0.00 0.00 0.00 0.00 0.00 0.00 0.00 0.00 0.00 0.00 0.00 0.00 0.00 0.00 0.00 0.00 0.00 0.00 0.00 0.00
0.00 0.00 0.00 0.00 0.00 0.00 0.00 0.00 0.00 0.00 0.00 0.00 0.00 0.00 0.00 0.00 0.00 0.00 0.00 0.00 0.00 0.00 0.00 0.00 0.00 0.00 0.00 0.00 0.00 0.00 0.00 0.00 0.00 0.00 0.00 0.00 0.00 0.00 0.00 0.00 0.00 0.00 0.00 0.00
0.00 0.00 0.00 0.00 0.00 0.00 0.00 0.00 0.00 0.00 0.00 0.00 0.00 0.00 0.00 0.00 0.00 0.00 0.00 0.00 0.00 0.00 0.00 0.00 0.00 0.00 0.00 0.00 0.00 0.00 0.00 0.00 0.00 0.00 0.00 0.00 0.00 0.00 0.00 0.00 0.00 0.00 0.00 0.00
MSLP
1014.44 1014.84 1015.12 1015.28 1015.33 1015.27 1015.13 1014.90 1014.59 1014.20 1013.71 1013.12 1012.45 1011.72 1010.96 1010.22 1009.54 1008.96 1008.50 1008.16 1007.94 1007.79 1007.71 1007.65 1007.60 1007.56 1007.55 1007.58 1007.69 1007.91 1008.26 1008.73 1009.33 1010.02 1010.77 1011.55 1012.32 1013.05 1013.72 1014.33 1014.88 1015.37 1015.82 1016.25
1014.48 1014.84 1015.09 1015.24 1015.29 1015.26 1015.16 1014.99 1014.74 1014.37 1013.88 1013.26 1012.51 1011.65 1010.75 1009.86 1009.05 1008.37 1007.85 1007.50 1007.31 1007.24 1007.25 1007.31 1007.37 1007.42 1007.47 1007.55 1007.68 1007.91 1008.27 1008.75 1009.37 1010.08 1010.87 1011.69 1012.50 1013.27 1013.98 1014.61 1015.18 1015.69 1016.16 1016.59
1014.32 1014.62 1014.83 1014.96 1015.03 1015.05 1015.02 1014.92 1014.73 1014.41 1013.92 1013.26 1012.42 1011.44 1010.39 1009.35 1008.39 1007.60 1007.02 1006.66 1006.50 1006.52 1006.64 1006.82 1007.01 1007.17 1007.32 1007.46 1007.65 1007.91 1008.29 1008.80 1009.43 1010.17 1010.99 1011.84 1012.68 1013.47 1014.20 1014.86 1015.45 1015.98 1016.45 1016.90
1013.98 1014.21 1014.37 1014.48 1014.57 1014.63 1014.67 1014.66 1014.54 1014.26 1013.78 1013.08 1012.15 1011.05 1009.85 1008.65 1007.56 1006.66 1006.01 1005.64 1005.52 1005.62 1005.86 1006.17 1006.50 1006.79 1007.05 1007.29 1007.55 1007.87 1008.29 1008.82 1009.49 1010.25 1011.09 1011.96 1012.82 1013.64 1014.39 1015.06 1015.67 1016.21 1016.70 1017.15
1013.54 1013.68 1013.78 1013.87 1013.96 1014.06 1014.17 1014.22 1014.17 1013.94 1013.46 1012.72 1011.71 1010.49 1009.15 1007.81 1006.59 1005.59 1004.88 1004.50 1004.42 1004.60 1004.95 1005.39 1005.85 1006.29 1006.68 1007.03 1007.38 1007.77 1008.25 1008.83 1009.52 1010.31 1011.17 1012.06 1012.94 1013.77 1014.53 1015.22 1015.84 1016.40 1016.91 1017.38
1013.09 1013.14 1013.16 1013.20 1013.28 1013.41 1013.56 1013.68 1013.68 1013.47 1013.00 1012.22 1011.14 1009.83 1008.37 1006.91 1005.58 1004.49 1003.74 1003.34 1003.30 1003.54 1003.99 1004.56 1005.16 1005.73 1006.25 1006.72 1007.17 1007.65 1008.19 1008.82 1009.55 1010.37 1011.25 1012.16 1013.05 1013.89 1014.67 1015.38 1016.02 1016.60 1017.13 1017.61
1012.70 1012.64 1012.58 1012.56 1012.62 1012.75 1012.93 1013.08 1013.11 1012.93 1012.45 1011.65 1010.52 1009.13 1007.59 1006.04 1004.63 1003.48 1002.69 1002.30 1002.28 1002.58 1003.12 1003.79 1004.51 1005.20 1005.84 1006.42 1006.98 1007.54 1008.15 1008.84 1009.61 1010.46 1011.36 1012.28 1013.18 1014.04 1014.83 1015.56 1016.22 1016.82 1017.37 1017.87
1012.39 1012.23 1012.08 1012.00 1012.02 1012.13 1012.31 1012.48 1012.52 1012.35 1011.87 1011.05 1009.90 1008.47 1006.89 1005.29 1003.84 1002.67 1001.87 1001.48 1001.48 1001.83 1002.43 1003.19 1003.99 1004.79 1005.53 1006.21 1006.86 1007.51 1008.19 1008.93 1009.74 1010.62 1011.54 1012.47 1013.38 1014.25 1015.05 1015.79 1016.47 1017.09 1017.65 1018.17
1012.11 1011.87 1011.64 1011.50 1011.47 1011.55 1011.72 1011.87 1011.92 1011.75 1011.28 1010.46 1009.31 1007.89 1006.31 1004.72 1003.28 1002.12 1001.33 1000.96 1000.99 1001.37 1002.02 1002.82 1003.70 1004.57 1005.39 1006.15 1006.88 1007.60 1008.34 1009.13 1009.98 1010.87 1011.80 1012.74 1013.65 1014.52 1015.33 1016.08 1016.76 1017.39 1017.96 1018.48
1011.80 1011.50 1011.21 1011.00 1010.92 1010.97 1011.10 1011.23 1011.26 1011.09 1010.64 1009.85 1008.74 1007.37 1005.85 1004.33 1002.94 1001.83 1001.08 1000.74 1000.80 1001.21 1001.88 1002.72 1003.63 1004.55 1005.43 1006.26 1007.06 1007.83 1008.63 1009.45 1010.33 1011.24 1012.17 1013.10 1014.01 1014.86 1015.66 1016.40 1017.08 1017.70 1018.27 1018.77
1011.35 1011.01 1010.68 1010.43 1010.30 1010.29 1010.38 1010.48 1010.49 1010.32 1009.88 1009.15 1008.12 1006.85 1005.44 1004.03 1002.76 1001.74 1001.07 1000.78 1000.88 1001.30 1001.99 1002.85 1003.78 1004.73 1005.65 1006.53 1007.37 1008.20 1009.03 1009.89 1010.78 1011.70 1012.62 1013.53 1014.42 1015.25 1016.03 1016.74 1017.40 1017.99 1018.53 1019.00
1010.70 1010.34 1009.98 1009.69 1009.52 1009.46 1009.48 1009.53 1009.51 1009.34 1008.94 1008.28 1007.35 1006.22 1004.97 1003.73 1002.61 1001.73 1001.16 1000.95 1001.09 1001.55 1002.25 1003.11 1004.06 1005.03 1005.98 1006.90 1007.79 1008.66 1009.53 1010.41 1011.31 1012.21 1013.12 1014.00 1014.85 1015.65 1016.38 1017.06 1017.67 1018.23 1018.73 1019.16
1009.84 1009.47 1009.09 1008.77 1008.54 1008.41 1008.37 1008.35 1008.29 1008.11 1007.75 1007.17 1006.37 1005.41 1004.36 1003.31 1002.39 1001.68 1001.25 1001.14 1001.34 1001.83 1002.55 1003.42 1004.38 1005.36 1006.35 1007.30 1008.23 1009.15 1010.05 1010.95 1011.85 1012.75 1013.63 1014.48 1015.28 1016.02 1016.71 1017.33 1017.90 1018.41 1018.86 1019.24
1008.81 1008.44 1008.04 1007.68 1007.39 1007.18 1007.04 1006.94 1006.82 1006.62 1006.29 1005.80 1005.15 1004.38 1003.55 1002.73 1002.03 1001.51 1001.24 1001.25 1001.53 1002.07 1002.81 1003.69 1004.66 1005.67 1006.69 1007.68 1008.66 1009.61 1010.55 1011.47 1012.37 1013.26 1014.11 1014.91 1015.67 1016.36 1017.00 1017.57 1018.08 1018.54 1018.94 1019.27
1007.74 1007.35 1006.93 1006.51 1006.13 1005.82 1005.57 1005.37 1005.18 1004.94 1004.64 1004.24 1003.74 1003.16 1002.56 1001.99 1001.52 1001.21 1001.12 1001.25 1001.63 1002.22 1002.99 1003.89 1004.88 1005.92 1006.96 1008.00 1009.02 1010.02 1010.99 1011.93 1012.84 1013.71 1014.53 1015.31 1016.02 1016.66 1017.25 1017.78 1018.24 1018.65 1019.00 1019.28
1006.73 1006.32 1005.85 1005.36 1004.89 1004.46 1004.08 1003.76 1003.48 1003.20 1002.92 1002.60 1002.24 1001.86 1001.49 1001.16 1000.93 1000.84 1000.92 1001.19 1001.66 1002.30 1003.11 1004.03 1005.04 1006.10 1007.18 1008.26 1009.32 1010.36 1011.36 1012.32 1013.24 1014.10 1014.90 1015.64 1016.32 1016.93 1017.48 1017.97 1018.40 1018.77 1019.08 1019.32
1005.89 1005.46 1004.94 1004.36 1003.78 1003.22 1002.71 1002.27 1001.89 1001.57 1001.30 1001.06 1000.84 1000.65 1000.49 1000.40 1000.40 1000.51 1000.76 1001.15 1001.70 1002.40 1003.24 1004.18 1005.20 1006.28 1007.38 1008.49 1009.58 1010.65 1011.68 1012.66 1013.58 1014.43 1015.23 1015.95 1016.60 1017.19 1017.72 1018.18 1018.59 1018.93 1019.21 1019.41
1005.29 1004.82 1004.25 1003.59 1002.91 1002.23 1001.60 1001.04 1000.59 1000.23 999.98 999.81 999.72 999.71 999.75 999.87 1000.07 1000.37 1000.76 1001.26 1001.88 1002.62 1003.47 1004.41 1005.43 1006.51 1007.62 1008.74 1009.85 1010.94 1011.98 1012.97 1013.89 1014.75 1015.52 1016.24 1016.88 1017.45 1017.97 1018.42 1018.82 1019.14 1019.39 1019.55
1004.90 1004.41 1003.80 1003.08 1002.32 1001.55 1000.83 1000.20 999.69 999.32 999.10 999.01 999.05 999.19 999.41 999.72 1000.09 1000.53 1001.04 1001.63 1002.29 1003.05 1003.89 1004.82 1005.82 1006.88 1007.97 1009.09 1010.20 1011.28 1012.32 1013.31 1014.22 1015.07 1015.84 1016.54 1017.17 1017.74 1018.25 1018.69 1019.07 1019.37 1019.59 1019.72
1004.65 1004.16 1003.53 1002.79 1001.99 1001.18 1000.41 999.76 999.24 998.90 998.73 998.73 998.88 999.16 999.54 1000.00 1000.51 1001.06 1001.66 1002.30 1002.99 1003.74 1004.56 1005.45 1006.41 1007.43 1008.49 1009.58 1010.66 1011.72 1012.74 1013.71 1014.60 1015.43 1016.18 1016.86 1017.48 1018.04 1018.54 1018.97 1019.33 1019.61 1019.79 1019.87
1004.43 1003.96 1003.35 1002.63 1001.85 1001.06 1000.32 999.69 999.22 998.94 998.85 998.95 999.22 999.62 1000.13 1000.70 1001.31 1001.95 1002.60 1003.26 1003.95 1004.68 1005.47 1006.31 1007.22 1008.18 1009.19 1010.23 1011.27 1012.29 1013.27 1014.20 1015.06 1015.85 1016.57 1017.23 1017.83 1018.37 1018.84 1019.25 1019.57 1019.81 1019.94 1019.96
1004.14 1003.72 1003.17 1002.52 1001.81 1001.10 1000.45 999.91 999.54 999.36 999.37 999.58 999.95 1000.46 1001.07 1001.73 1002.41 1003.09 1003.77 1004.45 1005.13 1005.83 1006.57 1007.36 1008.21 1009.11 1010.06 1011.03 1012.01 1012.97 1013.90 1014.77 1015.59 1016.33 1017.01 1017.63 1018.19 1018.69 1019.13 1019.49 1019.77 1019.95 1020.02 1019.97
1003.72 1003.37 1002.91 1002.37 1001.79 1001.22 1000.71 1000.31 1000.08 1000.02 1000.16 1000.48 1000.95 1001.54 1002.22 1002.93 1003.66 1004.37 1005.06 1005.73 1006.40 1007.08 1007.78 1008.52 1009.32 1010.16 1011.04 1011.95 1012.86 1013.75 1014.61 1015.42 1016.17 1016.86 1017.48 1018.05 1018.56 1019.01 1019.38 1019.69 1019.90 1020.01 1020.01 1019.89
1003.15 1002.88 1002.54 1002.15 1001.73 1001.33 1001.00 1000.78 1000.71 1000.80 1001.06 1001.48 1002.04 1002.69 1003.41 1004.16 1004.91 1005.64 1006.34 1007.01 1007.67 1008.33 1009.01 1009.72 1010.47 1011.26 1012.08 1012.92 1013.76 1014.58 1015.36 1016.10 1016.77 1017.39 1017.96 1018.46 1018.90 1019.28 1019.59 1019.83 1019.96 1020.00 1019.92 1019.72
1002.47 1002.29 1002.08 1001.85 1001.61 1001.41 1001.28 1001.25 1001.34 1001.58 1001.96 1002.47 1003.09 1003.79 1004.54 1005.30 1006.06 1006.79 1007.50 1008.17 1008.84 1009.50 1010.17 1010.86 1011.59 1012.33 1013.11 1013.88 1014.65 1015.39 1016.10 1016.75 1017.36 1017.90 1018.39 1018.83 1019.20 1019.51 1019.75 1019.91 1019.97 1019.92 1019.77 1019.50
1001.77 1001.68 1001.59 1001.52 1001.47 1001.46 1001.52 1001.67 1001.93 1002.30 1002.78 1003.36 1004.02 1004.75 1005.51 1006.28 1007.04 1007.78 1008.49 1009.19 1009.86 1010.54 1011.22 1011.91 1012.62 1013.34 1014.06 1014.78 1015.48 1016.15 1016.77 1017.35 1017.88 1018.35 1018.77 1019.13 1019.44 1019.68 1019.85 1019.94 1019.92 1019.81 1019.59 1019.27
Thickness
5564 5558 5561 5561 5561 5562 5560 5561 5563 5570 5577 5576 5586 5600 5611 5620 5626 5634 5643 5650 5655 5661 5668 5671 5676 5680 5682 5684 5685 5685 5682 5679 5676 5672 5666 5658 5650 5646 5644 5643 5640 5636 5633 5629
5550 5550 5552 5552 5551 5551 5549 5548 5550 5556 5562 5567 5576 5593 5607 5614 5623 5633 5640 5648 5655 5659 5662 5665 5669 5672 5674 5677 5678 5678 5676 5673 5672 5669 5663 5655 5645 5638 5635 5632 5629 5626 5624 5620
5540 5549 5552 5545 5538 5535 5537 5535 5536 5536 5543 5551 5555 5587 5606 5617 5625 5635 5644 5650 5655 5657 5659 5659 5661 5665 5667 5669 5671 5672 5669 5667 5664 5661 5655 5646 5638 5631 5625 5621 5618 5615 5614 5611
5534 5540 5539 5534 5529 5523 5527 5530 5528 5527 5523 5528 5540 5556 5596 5609 5617 5628 5637 5643 5650 5654 5657 5657 5658 5660 5662 5663 5663 5664 5662 5660 5657 5655 5652 5646 5638 5627 5619 5614 5609 5605 5603 5600
5535 5531 5525 5526 5525 5518 5517 5522 5519 5517 5511 5515 5527 5528 5581 5598 5608 5619 5628 5636 5645 5651 5654 5657 5659 5661 5658 5656 5655 5655 5653 5651 5649 5649 5647 5642 5631 5621 5610 5605 5600 5596 5592 5590
5531 5529 5523 5520 5520 5513 5510 5506 5503 5502 5499 5513 5530 5516 5563 5583 5604 5614 5623 5632 5642 5650 5653 5655 5656 5654 5650 5647 5648 5647 5645 5642 5640 5639 5637 5634 5624 5613 5603 5597 5592 5586 5582 5578
5523 5524 5521 5515 5506 5499 5494 5488 5490 5491 5496 5508 5522 5521 5561 5583 5598 5610 5620 5629 5637 5645 5648 5648 5647 5647 5645 5643 5642 5641 5638 5634 5631 5630 5627 5623 5617 5608 5600 5592 5585 5579 5573 5567
5507 5507 5512 5509 5503 5493 5487 5483 5484 5482 5484 5488 5503 5519 5558 5578 5589 5603 5616 5624 5630 5635 5639 5642 5645 5646 5644 5640 5637 5635 5632 5626 5623 5620 5615 5611 5605 5598 5589 5583 5577 5571 5564 5557
5499 5498 5506 5502 5497 5493 5483 5480 5486 5480 5480 5478 5493 5517 5543 5567 5573 5585 5598 5610 5619 5625 5630 5635 5638 5640 5639 5636 5633 5631 5625 5619 5613 5609 5605 5599 5593 5587 5579 5572 5566 5560 5554 5548
5491 5485 5493 5496 5490 5489 5485 5482 5474 5473 5479 5483 5490 5504 5533 5555 5561 5573 5587 5601 5613 5618 5623 5627 5631 5632 5631 5629 5625 5621 5618 5612 5604 5599 5595 5589 5582 5576 5569 5563 5556 5550 5544 5538
5489 5481 5487 5490 5490 5492 5480 5476 5475 5477 5477 5472 5481 5517 5546 5550 5558 5567 5582 5598 5609 5616 5621 5625 5625 5623 5621 5618 5616 5612 5607 5601 5594 5589 5584 5578 5571 5565 5559 5552 5545 5539 5533 5527
5492 5486 5489 5494 5504 5501 5491 5486 5480 5477 5479 5473 5477 5519 5549 5550 5556 5565 5578 5592 5604 5611 5616 5616 5615 5612 5610 5608 5606 5601 5597 5592 5585 5579 5574 5567 5560 5554 5548 5541 5535 5530 5523 5517
5494 5487 5490 5496 5498 5491 5486 5488 5485 5482 5482 5480 5483 5520 5545 5548 5554 5560 5571 5583 5594 5601 5604 5604 5601 5601 5600 5599 5596 5591 5587 5582 5575 5570 5564 5556 5550 5544 5538 5531 5525 5519 5513 5507
5504 5493 5494 5500 5509 5498 5494 5494 5490 5483 5487 5492 5502 5524 5540 5545 5552 5559 5569 5579 5586 5593 5596 5593 5592 5591 5591 5589 5586 5581 5576 5572 5567 5561 5554 5546 5540 5534 5528 5522 5516 5510 5503 5497
5506 5505 5507 5510 5512 5504 5502 5503 5499 5495 5500 5501 5518 5526 5540 5546 5552 5560 5570 5578 5583 5588 5589 5589 5587 5584 5582 5579 5575 5571 5567 5563 5558 5552 5544 5536 5530 5525 5519 5513 5506 5500 5493 5486
5509 5509 5513 5521 5525 5519 5517 5519 5516 5512 5511 5513 5519 5532 5547 5552 5558 5564 5572 5580 5585 5588 5588 5586 5583 5580 5576 5573 5568 5563 5558 5553 5549 5542 5534 5527 5522 5516 5509 5503 5496 5489 5482 5475
5514 5511 5516 5530 5537 5535 5539 5541 5536 5532 5531 5527 5528 5545 5553 5558 5564 5570 5577 5584 5588 5589 5588 5585 5582 5577 5572 5568 5564 5557 5550 5545 5540 5533 5525 5519 5513 5506 5499 5493 5486 5478 5471 5464
5523 5518 5518 5529 5540 5551 5555 5559 5556 5550 5548 5548 5553 5561 5563 5565 5569 5574 5581 5587 5589 5590 5587 5583 5578 5571 5565 5560 5555 5549 5543 5538 5531 5523 5516 5510 5504 5496 5489 5482 5475 5467 5460 5453
5532 5527 5525 5534 5546 5555 5564 5564 5562 5560 5562 5567 5568 5572 5573 5573 5579 5582 5582 5590 5592 5589 5586 5580 5574 5567 5560 5554 5549 5543 5535 5528 5521 5514 5507 5501 5494 5486 5479 5471 5464 5456 5449 5441
5533 5533 5532 5538 5547 5555 5567 5572 5574 5572 5574 5584 5583 5584 5583 5582 5586 5588 5577 5585 5587 5584 5579 5572 5565 5558 5552 5546 5542 5536 5527 5519 5512 5505 5497 5490 5483 5476 5468 5460 5453 5445 5437 5429
5536 5535 5538 5542 5547 5557 5572 5575 5577 5575 5583 5589 5591 5593 5589 5585 5581 5569 5567 5571 5574 5572 5568 5563 5557 5551 5544 5539 5535 5527 5518 5509 5501 5494 5486 5479 5471 5464 5456 5448 5441 5433 5425 5418
5542 5541 5541 5543 5549 5559 5577 5577 5576 5581 5584 5586 5589 5590 5582 5568 5559 5558 5559 5559 5560 5557 5554 5551 5545 5538 5532 5530 5526 5516 5505 5497 5490 5483 5474 5466 5459 5453 5445 5437 5429 5421 5414 5406
5542 5547 5548 5552 5562 5572 5573 5576 5579 5578 5582 5582 5578 5575 5569 5559 5552 5549 5547 5546 5545 5544 5541 5538 5534 5527 5520 5517 5515 5505 5492 5486 5479 5470 5461 5454 5447 5440 5433 5426 5418 5410 5402 5395
5546 5549 5551 5555 5565 5572 5575 5577 5576 5571 5571 5569 5569 5567 5564 5556 5547 5541 5538 5535 5533 5531 5529 5527 5524 5516 5507 5502 5498 5491 5482 5475 5468 5458 5450 5443 5435 5428 5421 5414 5408 5400 5391 5383
5553 5550 5551 5560 5570 5574 5578 5575 5566 5559 5559 5561 5560 5559 5555 5550 5542 5536 5531 5527 5525 5522 5519 5516 5512 5503 5493 5488 5482 5477 5471 5465 5456 5447 5439 5431 5424 5417 5410 5403 5396 5389 5381 5373
5549 5553 5558 5566 5574 5574 5574 5565 5559 5557 5555 5555 5554 5548 5544 5543 5537 5530 5524 5519 5516 5512 5507 5502 5496 5489 5482 5476 5469 5463 5459 5453 5445 5436 5427 5420 5413 5406 5399 5392 5385 5379 5372 5365